Fort Smith, AR

9:29 PM CDT on June 24, 2017 (GMT -0500)
Fort Smith Regional

Weather History for KFSM - June, 2014

Change the Weather History Date:

Thursday, June 5, 2014

  Actual Average Record
Temperature  
Mean Temperature 84 °F 75 °F  
Max Temperature 93 °F 85 °F 98 °F (2011)
Min Temperature 74 °F 65 °F 52 °F (1988)
Cooling Degree Days 19 10  
Month to date cooling degree days 82 49  
Year to date cooling degree days 360 293  
Since 1 June cooling degree days 82 49  
Growing Degree Days 33 (Base 50)    
Moisture  
Dew Point 70 °F    
Average Humidity 65    
Maximum Humidity 82    
Minimum Humidity 47    
Precipitation  
Precipitation 0.00 in 0.16 in 1.56 in (2002)
Month to date precipitation 0.02 0.79  
Year to date precipitation 14.76 19.98  
Sea Level Pressure  
Sea Level Pressure 29.80 in    
Wind  
Wind Speed 6 mph (South)    
Max Wind Speed 15 mph    
Max Gust Speed 21 mph    
Visibility 10 miles    
Events      
T = Trace of Precipitation, MM = Missing Value Source: NWS Daily Summary

Daily Weather History Graph

Daily Weather History Graph

Search for Another Location

Airport or City:

Trip Planner

Search our weather history database for the weather conditions in past years. The results will help you decide how hot, cold, wet, or windy it might be!

Date:

Astronomy

Jun. 05, 2014 Rise Set
Actual Time 6:02 AM CDT 8:29 PM CDT
Civil Twilight 5:33 AM CDT 8:59 PM CDT
Nautical Twilight 4:56 AM CDT 9:35 PM CDT
Astronomical Twilight 4:16 AM CDT 10:15 PM CDT
Moon 1:07 PM CDT (6/5) 1:09 AM CDT (6/5)
Length of Visible Light 15h 25m
Length of Day
14h 26m
Waxing Crescent, 49% of the Moon is Illuminated
Jun 5
Waxing Crescent
Jun 5
First Quarter
Jun 12
Full
Jun 19
Last Quarter
Jun 27
New

Hourly Weather History & Observations

Time (CDT) Temp. Heat Index Dew Point Humidity Pressure Visibility Wind Dir Wind Speed Gust Speed Precip Events Conditions
12:53 AM 80.1 °F 82.9 °F 69.1 °F 69% 29.80 in 10.0 mi Calm Calm - N/A   Clear
1:53 AM 79.0 °F - 69.1 °F 72% 29.79 in 10.0 mi SSE 5.8 mph - N/A   Overcast
2:53 AM 77.0 °F - 70.0 °F 79% 29.78 in 10.0 mi SSE 4.6 mph - N/A   Overcast
3:53 AM 77.0 °F - 70.0 °F 79% 29.79 in 10.0 mi East 3.5 mph - N/A   Mostly Cloudy
4:53 AM 75.9 °F - 70.0 °F 82% 29.78 in 10.0 mi East 3.5 mph - N/A   Partly Cloudy
5:53 AM 75.0 °F - 69.1 °F 82% 29.79 in 10.0 mi Calm Calm - N/A   Clear
6:53 AM 75.0 °F - 70.0 °F 84% 29.77 in 10.0 mi South 6.9 mph - N/A   Clear
7:53 AM 79.0 °F - 71.1 °F 77% 29.73 in 10.0 mi Variable 5.8 mph - N/A   Clear
8:53 AM 79.0 °F - 71.1 °F 77% 29.74 in 10.0 mi South 4.6 mph - N/A   Clear
9:53 AM 79.0 °F - 72.0 °F 79% 29.88 in 10.0 mi NNW 8.1 mph - N/A   Mostly Cloudy
10:13 AM 79.0 °F - 71.1 °F 77% 29.95 in 10.0 mi NW 10.4 mph - N/A   Mostly Cloudy
10:53 AM 79.0 °F - 71.1 °F 77% 29.89 in 10.0 mi Calm Calm - N/A   Clear
11:53 AM 82.0 °F 86.7 °F 72.0 °F 71% 29.87 in 10.0 mi ESE 5.8 mph - N/A   Clear
12:53 PM 81.0 °F 85.2 °F 72.0 °F 74% 29.80 in 10.0 mi ESE 9.2 mph - N/A   Clear
1:53 PM 84.9 °F 91.4 °F 73.0 °F 67% 29.81 in 10.0 mi SE 10.4 mph - N/A   Partly Cloudy
2:53 PM 88.0 °F 95.6 °F 73.0 °F 61% 29.78 in 10.0 mi SSE 8.1 mph - N/A   Partly Cloudy
3:53 PM 91.9 °F 97.4 °F 70.0 °F 48% 29.77 in 10.0 mi South 12.7 mph - N/A   Clear
4:53 PM 91.9 °F 95.9 °F 68.0 °F 45% 29.75 in 10.0 mi South 13.8 mph 19.6 mph N/A   Clear
5:53 PM 88.0 °F 92.9 °F 70.0 °F 55% 29.75 in 10.0 mi SSW 11.5 mph - N/A   Partly Cloudy
6:53 PM 89.1 °F 93.7 °F 69.1 °F 52% 29.77 in 10.0 mi SSW 10.4 mph - N/A   Scattered Clouds
7:53 PM 86.0 °F 90.7 °F 70.0 °F 59% 29.79 in 10.0 mi SSW 8.1 mph - N/A   Clear
8:53 PM 84.0 °F 88.4 °F 70.0 °F 63% 29.81 in 10.0 mi SSW 9.2 mph - N/A   Scattered Clouds
9:53 PM 81.0 °F 84.4 °F 70.0 °F 69% 29.82 in 10.0 mi South 6.9 mph - N/A   Clear
10:53 PM 80.1 °F 82.9 °F 69.1 °F 69% 29.83 in 10.0 mi SSE 3.5 mph - N/A   Clear
11:53 PM 79.0 °F - 69.1 °F 72% 29.85 in 10.0 mi Calm Calm - N/A   Clear